Flag for Germany Weather past 2 weeks in Bad Oeynhausen, North Rhine-Westphalia, Germany

Now
55 °F

Partly cloudy.


Feels Like: 52 °F
Forecast: 41 / 51 °F
Wind: 12 mph from Southwest

Location: Bueckeburg

Current Time: Oct 21, 2014 at 6:22:42 AM

Latest Report: Oct 21, 2014 at 5:20 AM


Visibility: 6 mi

Pressure: 29.80 "Hg

Humidity: 82%

Dew point: 50 °F

Location of Bad OeynhausenLocation

Historic Weather in Bad Oeynhausen — Graph

°F

Bad Oeynhausen temperature yesterday

Maximum temperature yesterday: 61 °F (at 1:20 PM)
Minimum temperature yesterday: 55 °F (at 3:20 PM)
Average temperature yesterday: 58 °F

Past Weeks' High & Low Weather Summary

 TemperatureHumidityPressure
High73 °F (Oct 19, 2:20 PM)100% (Oct 11, 2:20 AM)30.15 "Hg (Oct 11, 2:20 AM)
Low48 °F (Oct 6, 6:20 AM)49% (Oct 14, 4:20 PM)29.53 "Hg (Oct 7, 1:20 PM)
Average58 °F81%29.83 "Hg
* Reported Oct 6 5:20 AM — Oct 21 5:20 AM, Bad Oeynhausen, Weather by CustomWeather, © 2014

Note: Actual official high and low records may vary slightly from our data, if they occured in-between our weather recording intervals... More about our weather records

Advertising

Bad Oeynhausen weather history for previous 24 hours

 ConditionsComfort  
Time TempWeatherWind HumidityBarometerVisibility
5:20 AM
Oct 21
55 °FPartly cloudy.12 mph82%29.80 "Hg6 mi
4:20 AM55 °FPassing clouds.13 mph82%29.83 "HgN/A
3:20 AM55 °FPassing clouds.12 mph82%29.83 "HgN/A
2:20 AM55 °FPassing clouds.9 mph82%29.86 "HgN/A
1:20 AM55 °FPassing clouds.10 mph82%29.86 "HgN/A
12:20 AM55 °FPassing clouds.8 mph82%29.89 "HgN/A
11:20 PM
Oct 20
55 °FPassing clouds.8 mph82%29.89 "HgN/A
10:20 PM57 °FPassing clouds.9 mph77%29.89 "HgN/A
9:20 PM57 °FPassing clouds.8 mph82%29.89 "HgN/A
8:20 PM57 °FPassing clouds.12 mph82%29.92 "HgN/A
7:20 PM57 °FPassing clouds.9 mph82%29.92 "HgN/A
6:20 PM57 °FPartly sunny.9 mph82%29.92 "HgN/A
5:20 PM59 °FPartly sunny.14 mph77%29.92 "HgN/A
4:20 PM59 °FPartly sunny.9 mph82%29.92 "HgN/A
3:20 PM55 °FSprinkles. Broken clouds.8 mph94%29.95 "Hg3 mi
2:49 PM59 °FRain showers. Broken clouds.17 mph82%29.95 "HgN/A
2:20 PM61 °FSprinkles. Partly sunny.16 mph72%29.95 "HgN/A
1:20 PM61 °FPartly sunny.20 mph77%29.95 "HgN/A
12:20 PM59 °FSprinkles. Broken clouds.22 mph82%29.95 "HgN/A
11:20 AM59 °FPartly sunny.16 mph77%29.95 "HgN/A
10:20 AM57 °FBroken clouds.16 mph82%29.95 "HgN/A
9:20 AM57 °FPartly sunny.15 mph82%29.95 "HgN/A
8:20 AM57 °FPartly cloudy.16 mph82%29.92 "HgN/A
7:20 AM57 °FPartly cloudy.14 mph82%29.92 "HgN/A
Weather by CustomWeather, © 2014

See weather overviewHow to use our weather pages